Simultaneous Nadir Overpasses (SNOs) Predictions

Prediction of SNOs between NOAA-19 and METOP-C Satellite Orbit:

Table of predicted SNOs for the next 14.0 days since TLE Epoch: 10/25/2019
Index Date (NOAA-19) Time (NOAA-19) Lat,Lon (NOAA-19) SZA (NOAA-19 ) Date (METOP-C) Time (METOP-C) Lat,Lon (METOP-C) SZA (METOP-C ) Distance(km) Time Diff (sec)
1 10/30/2019 11:47:00 -79.76,-160.30 85.90 10/30/2019 11:48:08 -79.72,-157.40 85.72 57.46 68
2 10/30/2019 12:37:49 79.59, 8.81 94.08 10/30/2019 12:38:52 79.59, 8.79 94.09 0.29 63
3 10/30/2019 13:28:54 -79.58, 176.17 85.92 10/30/2019 13:29:34 -79.58, 176.02 85.92 2.96 40
4 10/30/2019 14:19:50 79.60, -16.77 94.10 10/30/2019 14:20:14 79.57, -16.67 94.09 3.20 24
5 10/30/2019 15:10:55 -79.58, 150.60 85.90 10/30/2019 15:10:56 -79.56, 150.57 85.92 2.24 1
6 10/30/2019 16:01:49 79.58, -42.06 94.12 10/30/2019 16:01:35 79.56, -42.13 94.10 2.18 14
7 10/30/2019 16:52:54 -79.56, 125.31 85.88 10/30/2019 16:52:16 -79.58, 125.38 85.87 2.64 38
8 10/30/2019 17:43:49 79.56, -67.35 94.14 10/30/2019 17:42:56 79.58, -67.31 94.15 2.76 53




NCC Satellite Simultaneous Nadir Overpasses (SNOs) Prediction Service
